Temperature
21 21 21 21 21 21 21 21 21 21 21 21 21 21 20 20 20 20 20 20 20 20 20 20 20 20 20 20 20 20 20 19 19 19 19 18 18 18 18 18 18 18 18
22 22 21 21 21 21 21 21 21 21 21 21 21 21 20 20 20 20 20 20 20 20 20 20 20 20 20 20 20 20 20 20 19 19 19 19 19 19 19 18 18 18 18
23 22 21 21 21 21 21 21 21 21 21 21 21 21 21 21 20 20 20 20 20 20 21 21 21 21 21 21 20 20 20 20 19 19 19 19 19 19 19 19 18 18 18
23 22 21 21 21 21 21 21 21 21 21 21 21 21 21 21 21 21 20 20 21 21 21 21 21 21 21 21 21 20 20 20 19 19 19 18 18 18 19 19 19 18 18
23 23 22 21 21 21 21 21 21 21 21 21 21 21 21 21 21 21 21 21 21 21 21 21 21 21 21 21 20 20 20 20 19 19 19 19 18 18 18 19 19 19 18
24 23 22 22 21 21 21 21 21 21 21 21 21 21 21 21 21 21 21 21 21 21 21 21 21 21 21 20 20 20 20 20 19 19 19 19 18 18 18 18 19 19 19
24 23 22 22 22 21 21 21 21 21 21 21 21 21 21 20 20 20 20 20 20 20 20 20 20 20 20 20 20 20 20 20 19 19 18 19 18 18 18 18 18 19 19
25 24 23 22 22 22 21 21 21 21 21 21 21 21 21 20 20 20 20 20 20 20 20 20 20 20 20 20 20 20 19 19 19 19 18 18 18 18 18 18 18 18 19
24 24 23 23 22 22 21 21 21 21 21 21 21 21 20 20 20 20 20 20 20 20 20 20 20 20 20 19 19 19 19 19 19 19 19 18 18 18 18 18 18 18 18
24 24 24 23 23 22 22 21 21 21 21 21 21 21 20 20 20 20 20 20 19 19 19 20 20 20 20 20 19 19 19 19 19 19 19 18 18 18 18 18 18 18 18
24 24 24 23 23 22 22 22 21 21 21 21 21 20 20 20 20 20 19 19 19 19 19 19 19 19 19 19 19 19 19 19 19 19 19 19 18 18 18 18 18 18 18
24 24 24 24 23 23 22 22 21 21 21 21 21 20 20 20 20 19 19 19 18 18 18 18 19 19 19 19 19 19 19 19 19 19 19 19 18 18 18 18 18 18 18
24 24 23 23 23 23 22 22 21 21 21 21 20 20 20 19 19 19 19 19 18 18 18 18 18 18 18 18 19 18 18 18 19 19 19 19 18 18 18 18 18 18 18
23 23 23 23 23 22 22 22 21 21 20 20 20 20 19 19 19 19 19 18 18 18 18 18 18 18 18 18 18 18 18 18 18 18 18 19 18 18 18 18 18 18 18
22 22 21 21 22 22 21 21 21 20 20 20 19 19 19 19 19 18 18 18 18 18 18 18 18 18 18 18 18 18 18 18 18 18 18 18 18 18 18 18 18 18 18
21 21 21 20 20 20 20 21 20 20 19 19 19 19 19 19 18 18 18 18 18 18 18 18 18 18 18 18 18 18 17 17 17 17 18 18 18 18 18 18 18 18 18
21 21 20 20 20 19 20 20 20 19 19 19 19 19 19 18 18 18 18 18 17 17 17 17 17 17 17 17 17 17 17 17 17 17 17 18 18 18 18 18 18 18 18
20 20 20 20 19 19 19 19 19 19 19 19 19 19 19 18 18 18 18 17 17 17 17 17 17 17 17 17 17 17 17 17 17 17 17 17 18 18 18 18 18 18 18
20 19 19 19 18 18 18 19 19 19 19 19 19 19 19 19 18 18 18 17 17 17 17 17 17 17 17 17 17 17 17 17 17 17 17 18 18 18 18 18 18 18 18
20 19 19 18 17 17 18 18 18 19 19 19 19 19 19 19 19 18 18 17 17 17 17 17 16 16 16 16 16 16 17 17 17 17 17 17 18 18 18 18 18 18 18
19 19 19 18 17 17 17 18 18 18 19 19 19 19 19 19 19 18 18 18 17 17 17 16 16 16 16 16 16 16 17 17 17 17 17 17 17 17 17 17 17 18 18
18 18 18 17 16 16 17 17 18 18 19 19 19 19 19 19 19 18 18 18 17 17 17 16 16 16 16 16 15 15 16 17 17 17 17 17 17 17 17 17 17 17 18
17 17 17 17 16 16 17 17 18 18 18 19 19 18 18 19 19 18 18 18 18 17 17 17 16 16 16 15 15 15 14 14 15 17 17 17 17 17 17 17 18 18 18
15 15 16 16 16 16 17 17 17 18 18 18 18 18 18 18 18 18 18 18 18 18 17 17 16 16 16 15 15 15 14 14 14 14 16 17 16 17 17 17 17 18 18
15 15 15 15 15 16 16 17 17 17 18 18 18 18 18 18 18 18 18 18 18 18 17 17 17 16 16 16 15 15 15 14 14 14 14 16 16 16 16 17 17 18 18
15 15 15 15 15 15 15 16 16 16 16 17 17 17 17 17 17 17 17 17 17 17 17 17 17 16 16 16 15 15 15 14 14 13 13 14 15 16 16 16 17 17 17
Wind_Speed
12 16 21 20 19 20 21 20 20 19 19 19 20 19 19 19 19 20 19 19 18 17 16 15 14 14 14 14 14 15 15 15 15 15 15 15 15 13 13 15 14 14 15
17 19 23 21 20 21 22 21 20 20 19 19 19 19 19 18 18 18 18 18 17 16 15 15 14 14 13 13 13 13 13 13 13 13 13 14 13 12 11 13 14 12 14
20 19 22 22 21 22 23 22 21 20 20 19 19 19 18 18 17 17 17 17 16 15 15 14 13 13 12 12 11 11 11 10 10 11 11 10 11 12 14 16 15 14 13
20 18 21 23 23 23 23 22 21 21 20 19 19 18 18 18 17 16 16 16 15 14 14 14 13 12 12 11 10 10 10 9 8 9 8 8 9 11 14 16 15 14 13
16 17 21 25 24 24 23 22 22 21 20 20 19 18 18 17 17 16 16 15 15 14 14 13 13 12 11 10 9 8 8 8 8 7 6 8 9 12 14 16 16 15 13
15 16 22 25 24 23 23 22 22 21 20 20 19 18 18 17 17 16 16 15 14 14 13 12 12 11 11 10 9 8 7 7 7 5 6 9 12 15 16 16 16 15 14
14 14 21 24 24 23 23 22 22 21 20 20 19 18 17 16 16 15 15 14 14 13 13 12 12 11 10 10 9 8 7 7 7 6 7 8 14 19 19 18 18 17 15
18 14 18 24 24 23 23 22 21 21 20 19 19 18 17 16 15 15 14 14 14 13 13 13 12 12 12 11 10 10 9 9 8 6 6 8 15 20 20 20 19 18 17
16 14 12 18 21 23 22 22 21 20 20 19 18 18 17 17 16 15 15 15 15 14 14 14 14 13 13 13 13 12 11 11 11 9 8 7 14 21 22 21 21 20 19
14 14 12 13 16 17 18 21 21 20 19 19 18 18 17 17 16 16 15 15 15 15 16 16 16 16 15 15 14 14 14 13 12 11 10 9 12 20 24 23 22 21 21
15 13 12 11 11 13 14 18 19 19 19 19 18 18 17 14 14 14 15 16 17 17 18 18 18 17 16 16 16 16 15 12 11 11 12 13 14 19 24 24 23 23 22
18 16 13 13 12 11 13 14 13 15 15 16 14 15 15 13 14 14 15 19 20 20 20 20 19 18 16 13 15 16 12 13 12 12 13 16 16 18 23 25 25 24 23
19 17 15 14 12 12 9 9 9 11 11 13 14 15 13 11 11 12 10 13 16 18 16 16 17 14 12 11 10 10 12 13 12 13 14 17 18 18 21 25 25 24 23
15 14 14 14 13 13 9 8 8 7 7 8 13 15 11 6 6 7 6 7 8 9 8 8 7 9 11 13 11 9 10 10 11 12 13 17 18 20 21 23 26 25 23
10 8 8 9 11 12 11 9 9 8 8 9 11 14 13 8 8 7 5 5 5 6 4 4 5 7 7 7 9 8 8 9 11 12 13 17 19 21 21 22 25 25 24
7 4 4 7 7 7 9 8 7 7 6 7 8 12 14 9 6 6 5 4 3 4 5 4 5 6 5 5 6 7 6 7 9 11 13 15 19 21 22 22 24 25 25
8 6 4 3 3 5 8 9 7 6 6 6 6 10 11 10 7 5 4 4 4 4 4 3 4 3 4 4 6 6 6 6 7 8 11 12 14 18 22 24 26 26 26
12 11 7 3 5 8 6 6 4 4 5 5 5 7 9 9 8 4 4 4 3 3 2 3 2 2 3 3 4 4 5 5 7 7 9 11 12 13 17 24 27 27 27
13 13 13 13 9 8 6 3 2 3 5 4 4 5 7 8 8 5 4 3 3 2 1 1 1 2 2 3 4 5 5 5 7 8 8 9 11 13 15 19 26 28 29
10 10 9 10 12 8 4 3 2 1 1 2 4 5 7 7 8 5 4 4 3 3 1 1 1 1 2 2 3 4 5 6 6 7 8 7 8 12 15 16 17 21 28
7 7 8 7 9 6 4 4 1 2 1 2 4 6 7 7 7 6 5 4 4 3 2 2 1 1 1 1 1 3 4 5 5 5 5 5 6 8 10 11 13 14 15
5 5 6 5 4 4 4 3 2 2 2 3 4 4 6 7 7 7 7 5 5 3 2 1 2 1 1 0 2 0 4 5 4 2 2 2 3 4 5 7 9 11 13
9 9 9 7 5 5 5 3 2 1 2 1 1 3 5 7 7 7 8 7 6 4 3 3 3 4 2 2 2 3 1 2 4 4 2 2 2 3 4 4 4 7 10
9 9 9 7 8 8 7 5 4 2 2 2 2 3 4 6 7 7 9 8 7 5 5 4 4 4 4 2 2 2 3 4 2 4 4 2 3 3 4 4 4 3 5
9 8 7 7 8 9 9 9 7 6 4 4 3 3 2 3 5 7 8 8 8 6 6 6 5 4 4 4 3 3 2 2 4 4 5 4 4 3 3 4 3 2 2
6 6 6 6 7 8 9 9 9 8 7 7 6 5 4 3 3 5 7 8 8 7 7 7 6 6 5 5 4 4 4 3 3 4 4 4 5 4 4 3 3 2 1
Wind_Direction
162 164 162 159 159 158 152 147 141 137 134 131 129 125 123 123 124 127 127 126 125 123 122 121 121 120 117 115 115 116 116 118 119 120 119 118 117 115 116 118 112 110 110
158 162 160 158 159 157 153 150 146 143 141 139 136 133 130 129 130 131 132 130 129 128 126 125 125 125 124 122 120 120 120 121 123 125 125 125 123 118 123 132 120 123 118
153 159 157 156 157 156 155 153 151 150 148 147 144 141 139 138 138 138 139 138 136 135 134 134 133 133 133 132 131 129 128 128 131 133 131 130 131 125 122 131 131 129 126
152 156 156 156 156 157 157 156 156 156 155 154 152 149 147 146 146 146 146 146 145 144 144 144 144 144 144 145 145 143 142 143 148 152 153 158 158 147 138 138 139 139 137
150 154 158 157 158 159 160 160 161 161 161 160 158 157 155 155 155 154 154 154 154 153 154 154 155 156 158 160 161 162 161 163 170 181 189 187 184 169 159 151 149 149 147
152 156 161 160 161 162 163 164 165 166 166 166 164 163 163 163 163 162 162 163 163 163 164 164 165 168 171 174 179 185 189 192 196 208 226 220 199 187 177 166 161 160 159
154 160 164 163 164 165 167 168 170 170 171 170 170 170 170 171 172 172 172 172 173 174 176 177 179 181 186 191 197 206 217 226 227 226 237 222 194 190 186 177 171 170 171
158 163 168 168 168 169 170 172 174 175 176 176 176 176 177 179 181 182 183 184 185 187 189 192 194 196 199 204 210 218 228 240 251 241 234 218 201 196 193 185 180 179 180
161 166 170 172 173 174 175 177 179 180 181 182 183 184 186 188 190 192 194 196 198 200 202 203 206 209 210 213 218 224 231 241 252 262 266 241 212 205 200 193 188 186 187
165 172 175 174 174 176 179 183 184 186 187 189 190 192 195 197 200 202 205 208 210 211 213 214 215 217 219 221 225 230 235 241 246 252 257 254 232 215 206 200 197 194 195
174 178 178 176 175 176 179 187 188 191 194 196 198 200 201 205 208 212 216 219 221 222 223 223 223 224 225 228 232 234 238 238 237 245 249 249 244 226 216 209 206 203 201
181 183 183 182 179 176 184 188 191 195 199 200 202 205 204 205 211 218 224 228 229 229 230 230 230 230 231 231 235 238 237 237 236 241 244 246 247 238 227 219 215 211 207
182 182 183 184 183 182 189 185 192 199 200 205 207 209 208 209 217 227 227 236 237 236 233 234 232 229 229 229 229 229 233 238 239 239 241 245 249 247 234 225 221 216 213
176 183 181 183 185 191 194 189 190 197 199 206 212 210 208 211 217 224 224 227 227 227 223 225 223 223 228 232 233 232 236 238 240 238 241 246 252 253 244 231 223 219 217
161 164 174 184 194 198 199 194 194 199 202 204 206 210 209 210 218 220 222 221 220 217 215 217 223 225 224 230 236 235 237 239 239 237 239 244 248 249 245 232 223 221 221
110 109 155 188 199 213 207 197 194 196 201 199 201 208 207 206 208 214 221 222 217 206 202 206 215 222 223 225 233 233 229 231 231 230 232 241 245 242 239 232 226 226 225
88 76 82 205 239 233 220 200 189 184 180 182 191 196 193 193 195 197 206 219 223 216 208 211 223 227 238 236 238 239 235 232 234 230 229 233 239 239 236 233 230 229 229
53 41 31 301 308 286 249 211 183 173 164 170 179 178 180 183 182 175 191 216 220 215 208 219 228 237 246 245 252 254 248 243 245 238 236 234 233 239 238 236 235 234 233
61 47 26 359 332 309 288 257 209 168 160 164 171 174 181 179 178 170 183 203 185 167 199 225 193 198 233 261 266 261 256 251 251 252 243 237 235 232 233 238 239 238 238
59 59 44 19 338 305 308 322 312 331 166 168 181 185 181 179 176 163 165 172 152 132 132 159 191 200 209 239 276 285 270 259 250 246 248 247 242 239 236 236 239 242 242
61 70 67 38 347 336 336 305 308 280 273 235 213 193 184 180 172 159 155 152 141 143 173 191 187 231 266 225 13 317 298 274 258 252 251 254 258 255 249 241 237 238 242
47 72 81 56 2 324 299 283 271 260 251 240 223 200 190 180 171 165 160 162 157 155 173 185 164 172 252 165 145 353 333 333 332 302 289 267 288 290 274 262 241 233 234
48 39 42 32 22 343 325 324 323 339 345 357 265 220 212 192 177 167 172 167 170 171 190 209 195 173 202 250 180 162 178 270 309 312 302 311 328 320 299 289 257 239 231
48 46 41 27 19 4 5 16 22 10 329 298 277 254 235 208 190 179 179 176 179 181 192 210 191 183 178 216 250 206 194 191 231 304 311 302 313 314 310 311 296 260 228
45 44 34 27 22 14 19 24 25 15 341 322 330 318 278 244 222 205 191 186 186 189 196 203 201 203 192 196 207 215 225 217 208 224 286 309 320 291 292 287 280 258 208
44 46 43 34 23 14 22 27 24 17 1 357 352 343 325 306 282 252 218 201 196 194 199 203 206 210 213 214 215 208 205 211 209 208 251 291 304 301 304 289 270 233 172
Height
1509 1513 1516 1519 1521 1522 1523 1524 1525 1526 1526 1527 1528 1530 1531 1532 1533 1534 1535 1536 1537 1538 1539 1540 1541 1542 1542 1543 1544 1544 1545 1545 1546 1546 1547 1548 1548 1549 1549 1549 1550 1551 1552
1506 1511 1515 1518 1520 1522 1523 1524 1525 1526 1527 1527 1529 1530 1531 1532 1533 1535 1536 1537 1538 1538 1539 1540 1541 1542 1543 1544 1545 1545 1546 1547 1547 1548 1548 1549 1550 1550 1551 1551 1551 1552 1553
1506 1510 1514 1517 1519 1521 1523 1524 1524 1525 1526 1528 1529 1530 1531 1533 1534 1535 1536 1537 1538 1539 1540 1541 1542 1543 1544 1544 1545 1546 1547 1548 1548 1549 1549 1550 1551 1552 1552 1552 1553 1553 1554
1506 1509 1513 1516 1519 1520 1522 1523 1524 1525 1526 1527 1529 1530 1531 1533 1534 1535 1536 1537 1538 1539 1540 1541 1542 1543 1544 1545 1546 1547 1547 1548 1549 1549 1550 1551 1552 1552 1553 1554 1554 1554 1555
1506 1509 1513 1516 1518 1520 1522 1523 1524 1525 1526 1527 1529 1530 1531 1532 1533 1535 1536 1537 1538 1539 1540 1541 1542 1542 1543 1545 1546 1546 1547 1548 1549 1549 1550 1551 1551 1553 1554 1554 1555 1555 1556
1506 1509 1512 1515 1517 1519 1521 1522 1523 1524 1526 1527 1528 1529 1531 1532 1533 1534 1535 1536 1537 1538 1539 1540 1541 1542 1542 1543 1545 1546 1547 1547 1548 1549 1549 1550 1551 1552 1553 1554 1555 1556 1556
1506 1509 1512 1514 1517 1518 1520 1521 1523 1524 1525 1526 1528 1529 1530 1531 1532 1533 1534 1535 1536 1537 1537 1538 1539 1540 1541 1542 1543 1544 1545 1546 1547 1548 1548 1549 1550 1551 1553 1554 1555 1555 1556
1506 1508 1511 1513 1516 1518 1519 1521 1522 1524 1525 1526 1527 1528 1529 1531 1532 1532 1533 1534 1534 1535 1536 1537 1537 1538 1539 1540 1541 1542 1543 1544 1545 1546 1547 1547 1548 1550 1551 1552 1553 1554 1555
1506 1508 1510 1512 1514 1517 1519 1520 1522 1523 1524 1526 1527 1528 1529 1530 1530 1531 1532 1533 1533 1534 1534 1535 1536 1537 1538 1538 1539 1540 1541 1542 1543 1544 1545 1545 1546 1548 1549 1551 1552 1553 1554
1505 1507 1508 1511 1513 1515 1517 1519 1521 1523 1524 1525 1526 1527 1528 1529 1529 1530 1530 1531 1532 1532 1533 1533 1534 1535 1535 1536 1537 1538 1539 1540 1540 1542 1543 1544 1544 1546 1547 1549 1550 1551 1551
1503 1505 1507 1509 1511 1514 1516 1518 1519 1521 1522 1523 1524 1525 1526 1527 1528 1528 1529 1529 1530 1530 1531 1531 1532 1532 1533 1534 1534 1535 1536 1537 1538 1539 1540 1541 1542 1543 1544 1546 1547 1548 1549
1499 1501 1504 1507 1510 1512 1514 1515 1517 1518 1520 1521 1522 1523 1524 1525 1526 1526 1527 1527 1527 1528 1528 1529 1529 1530 1530 1531 1531 1532 1533 1534 1535 1536 1537 1538 1539 1540 1541 1542 1544 1545 1546
1496 1499 1502 1505 1508 1510 1511 1513 1514 1515 1516 1518 1519 1521 1522 1523 1523 1524 1524 1524 1524 1525 1525 1525 1526 1526 1527 1528 1529 1529 1530 1531 1532 1533 1534 1535 1536 1537 1538 1539 1540 1541 1543
1496 1500 1503 1506 1507 1508 1509 1510 1511 1512 1514 1515 1517 1518 1519 1520 1520 1521 1521 1521 1521 1522 1522 1522 1522 1523 1523 1524 1525 1526 1527 1528 1529 1530 1531 1532 1533 1534 1534 1535 1536 1538 1539
1496 1501 1505 1507 1508 1508 1508 1509 1510 1511 1512 1513 1514 1515 1516 1517 1517 1518 1518 1518 1518 1519 1519 1519 1519 1519 1519 1520 1521 1522 1523 1524 1525 1526 1527 1528 1528 1529 1530 1531 1532 1534 1536
1498 1500 1503 1504 1506 1507 1507 1507 1507 1509 1510 1511 1511 1512 1513 1514 1514 1515 1515 1515 1515 1515 1515 1515 1515 1515 1515 1516 1516 1517 1518 1519 1520 1521 1522 1523 1524 1524 1525 1527 1529 1530 1532
1497 1498 1498 1501 1502 1502 1504 1505 1505 1505 1506 1507 1509 1510 1511 1511 1511 1512 1512 1512 1512 1512 1511 1511 1511 1511 1511 1511 1512 1512 1513 1514 1515 1516 1517 1518 1519 1520 1521 1522 1524 1526 1527
1497 1498 1498 1499 1496 1496 1499 1501 1502 1503 1503 1505 1507 1508 1509 1509 1509 1509 1509 1509 1509 1508 1508 1508 1507 1507 1507 1507 1507 1507 1508 1509 1509 1510 1511 1512 1513 1514 1515 1517 1518 1520 1522
1493 1494 1495 1495 1489 1488 1493 1496 1498 1500 1501 1503 1505 1506 1506 1506 1507 1506 1506 1506 1506 1506 1505 1504 1504 1503 1503 1503 1502 1502 1503 1503 1504 1504 1505 1506 1507 1509 1510 1511 1513 1514 1516
1493 1492 1490 1485 1482 1482 1487 1492 1496 1496 1499 1500 1502 1503 1503 1504 1504 1504 1504 1503 1503 1503 1502 1501 1501 1500 1499 1498 1498 1498 1498 1498 1498 1499 1500 1501 1502 1503 1505 1506 1507 1508 1510
1492 1488 1484 1485 1482 1481 1486 1490 1493 1496 1498 1500 1501 1501 1501 1502 1502 1502 1501 1501 1500 1499 1499 1498 1497 1497 1496 1495 1494 1493 1493 1493 1493 1494 1495 1496 1497 1498 1498 1500 1501 1502 1504
1491 1487 1485 1486 1482 1483 1488 1490 1493 1496 1497 1499 1500 1499 1500 1500 1500 1500 1499 1498 1497 1496 1496 1495 1493 1493 1493 1491 1490 1489 1488 1489 1489 1490 1491 1492 1493 1493 1493 1494 1494 1496 1497
1491 1489 1488 1488 1486 1488 1491 1491 1493 1496 1497 1497 1498 1497 1497 1498 1497 1497 1497 1495 1494 1494 1493 1492 1491 1490 1489 1489 1487 1486 1486 1486 1485 1486 1487 1488 1489 1489 1488 1488 1488 1489 1491
1493 1492 1492 1492 1491 1492 1491 1491 1493 1494 1495 1495 1495 1495 1495 1494 1494 1494 1493 1492 1492 1491 1490 1489 1488 1487 1486 1485 1485 1484 1484 1484 1484 1482 1482 1483 1484 1484 1484 1483 1484 1485 1486
1498 1497 1497 1496 1495 1494 1492 1492 1492 1492 1493 1493 1492 1491 1491 1490 1490 1491 1490 1489 1489 1488 1487 1487 1486 1485 1483 1482 1481 1480 1480 1480 1481 1480 1477 1477 1478 1479 1479 1479 1479 1480 1481
1502 1501 1499 1498 1497 1495 1493 1491 1491 1489 1489 1489 1488 1486 1486 1485 1485 1485 1485 1485 1484 1484 1484 1483 1483 1482 1480 1479 1478 1477 1477 1476 1477 1477 1475 1474 1473 1474 1474 1474 1475 1476 1477